User: anonymous   Login
Location: Maiden
(35.5760°N, 81.2120°W)
Time: 00:06:44
(UTC-04:00)
Language:

Cosmos 2151 - Orbit

View from above orbital plane
View from above orbital plane
View from above satellite
View from above satellite

Ground track
Ground track

The orbit data is extracted from the following two-line orbital elements,

1 21422U 91042A   18170.34283397 +.00000175 +00000-0 +14667-4 0  9994
2 21422 082.5015 257.0154 0015201 143.6043 216.6213 14.91960330442162
Epoch (UTC): 19 June 2018 08:13:40
Eccentricity: 0.0015201
inclination: 82.5015°
perigee height: 581 km
apogee height: 602 km
right ascension of ascending node: 257.0154°
argument of perigee: 143.6043°
revolutions per day: 14.91960330
mean anomaly at epoch: 216.6213°
orbit number at epoch: 44216

The dashed part of the orbit path shows where the satellite is in the earth's shadow,  

DLR